Вернуться в каталог

FENGYUN 1C DEB

АктивенSSO
NORAD 32200·DEBRIS·🇨🇳 China

Запущен May 10, 1999 с Taiyuan Satellite Launch Center

Loading…

Ближайшие Пролёты (ближайшие 24 часа)

TLE

СвежийSource: Space-Track

Эпоха: Sep 12, 2026, 08:37 UTC

1 32200U 99025CUW 26255.35940785  .00001080  00000-0  55915-3 0  9990
2 32200  98.7676 305.4329 0039404 226.9341 132.8533 14.16625263982364

Отслеживайте FENGYUN 1C DEB в реальном времени с AllMySat

Download on the App Store